Weather in Konotop

Ukraine / Sumi District     51°14′20″N   33°12′35″E
temp.,
°C
wind,
m/s
gust,
m/s
humid.,
%
clouds,
%
prec.,
mm/h
press.,
hPa
HPBL,
m
19 september, sun
sun1900:00+10ese61291100 4.3 1008401
03:00+13se4997100 7.5 1007434
06:00+13sse3599100 2.9 1006247
09:00+13w349465 2.9 1007302
12:00+16w337367 0.1 1008928
15:00+15w2374100 0.1 1008445
18:00+15ene2276100 0.2 100765
21:00+13ese3486100 0.2 100775
20 september, mon
mon2000:00+13ese2395100 2.4 1006112
03:00+9w6997100 4.4 1006395
06:00+9wsw4693100 4.2 1006425
09:00+8sw4793100 5.2 1006511
12:00+9sw5890100 0.3 1007614
15:00+10ssw4784100 0.4 1007700
18:00+9s4891100 0.3 1006523
21:00+9wsw6894100 1.0 1007645
21 september, tue
tue2100:00+8wsw61094100 0.3 1008663
03:00+7wsw61095100 1.3 1009666
06:00+7wsw5994100 1.1 1009672
09:00+6wsw5894100 1.7 1009615
12:00+6wsw6994100 0.5 1010594
15:00+7w61196100 1.9 1010568
18:00+5wnw71195100 1.0 1011559
21:00+4wnw61096100 1.4 1012554
22 september, wed
wed2200:00+4wnw61097100 0.4 1013545
03:00+4wnw61097100 0.7 1013503
06:00+4wnw51097100 0.3 1012525
09:00+4wnw5997100 0.5 1013516
12:00+5nw5895100 0.2 1013541
15:00+5wnw4795100 0.4 1013467
18:00+5wnw4696100 0.3 1013397
21:00+5wnw3697100 0.3 1013300
23 september, thu
thu2300:00+5wnw3497100 0.6 1013169
03:00+5wnw3597100 0.8 1012243
06:00+5wnw249896 0.0 1012142
09:00+6wnw3395100 0.0 1012271
12:00+7w2389100 0.1 1012410
15:00+9w238081 0.2 1012679
18:00+8w358676 0.3 1012423
21:00+7wsw3689100 0.4 1012282